Wind_Speed
24 34 35 34 38 46 46 48 48 49 51 54 55 56 59 62 59 60 47 41 39 36 31 24 24 24 17 22 17 20 17 17 22 20 23 21 19 26 27 24 15 6 3 3 4 9 12 12 13
25 31 35 36 43 50 52 51 48 53 55 57 57 56 58 63 64 58 47 42 39 35 30 29 24 20 20 26 22 26 24 22 21 19 28 22 19 24 29 25 24 20 12 11 9 7 10 12 14
25 32 36 42 47 50 52 53 52 56 56 58 59 58 60 61 64 60 48 44 38 33 30 26 26 27 26 28 29 26 28 30 24 24 25 30 30 28 23 31 28 24 32 17 16 13 10 12 17
24 29 40 44 47 50 53 56 57 59 61 62 63 61 63 64 65 59 44 40 34 30 31 29 25 23 28 29 32 32 32 28 26 27 26 26 30 29 25 26 25 27 27 30 29 20 16 13 17
20 33 43 44 47 51 55 59 62 62 64 64 67 66 63 66 68 53 37 35 33 31 30 25 26 34 30 32 29 28 27 27 29 30 32 28 25 26 28 26 25 23 23 24 20 28 27 26 18
24 26 40 46 50 54 56 60 62 67 67 69 69 67 68 65 64 43 37 34 33 33 35 35 36 35 34 34 29 31 33 34 29 33 31 33 32 34 34 32 25 25 25 31 34 32 29 31 30
27 41 44 51 49 55 58 63 64 67 70 70 69 68 68 67 65 42 38 34 35 44 44 41 38 37 39 37 33 37 39 41 38 38 36 37 37 36 31 34 35 29 32 31 31 35 29 30 32
32 30 48 50 52 53 61 61 62 69 70 70 70 71 68 70 54 49 40 42 42 45 44 42 41 38 35 37 37 37 38 36 38 40 37 39 41 41 39 38 35 35 33 34 33 33 34 36 36
35 49 48 47 53 60 61 58 62 70 70 71 71 69 70 66 58 51 46 45 44 41 39 43 40 39 38 42 40 36 36 35 33 33 36 35 39 43 44 42 39 36 39 38 38 43 41 43 38
39 41 42 48 58 62 61 63 69 73 67 70 72 69 69 59 58 46 43 39 41 41 42 43 43 39 42 30 38 32 31 33 39 38 34 28 31 36 35 39 43 43 46 47 47 43 45 48 48
37 36 48 56 62 64 61 65 68 72 73 68 71 66 64 57 50 46 38 31 39 44 48 42 40 38 37 39 33 32 39 39 33 34 39 44 45 42 41 40 42 39 46 49 50 50 48 49 51
41 42 54 59 61 64 64 65 69 72 71 73 70 66 59 60 50 38 33 39 46 47 43 41 40 42 42 37 39 39 37 36 37 35 36 38 41 37 40 42 42 44 45 48 50 50 51 54 51
44 47 54 59 62 62 65 67 71 73 72 74 70 64 61 53 45 37 43 47 49 51 47 40 40 39 35 45 41 49 49 41 40 35 38 37 40 47 50 50 47 43 44 46 48 52 50 57 55
44 49 55 63 63 63 66 68 71 73 72 75 67 63 59 56 39 39 45 50 50 51 48 45 43 38 45 46 43 43 42 41 41 42 41 41 42 45 46 47 48 50 53 57 59 60 62 64 68
58 60 63 63 58 61 66 69 71 71 76 73 65 63 58 47 41 42 46 46 50 49 48 42 41 42 42 39 37 40 41 41 42 43 45 48 50 49 50 52 52 53 55 58 61 63 65 69 71
61 62 63 52 59 62 68 69 71 73 76 65 63 61 57 45 44 46 48 49 50 50 45 45 42 38 40 40 37 36 42 46 44 44 48 50 49 51 53 55 52 54 54 52 52 54 56 59 64
58 63 62 62 62 64 68 69 71 75 68 58 59 62 52 49 46 52 48 48 52 51 47 43 40 39 37 38 39 38 40 42 44 42 44 47 51 57 53 41 42 44 47 51 54 56 57 61 62
66 62 63 64 63 66 71 71 73 75 63 55 55 57 50 50 49 53 46 45 48 48 44 42 37 36 35 38 37 39 40 45 48 48 50 54 48 42 40 43 45 49 53 55 57 58 61 64 64
63 64 64 62 67 70 68 71 73 74 58 53 54 54 51 47 49 54 42 42 42 43 42 41 37 36 36 34 32 32 32 35 38 40 37 36 39 45 45 47 49 54 54 55 56 59 62 62 62
65 66 67 68 70 69 71 73 74 71 53 50 51 50 46 49 48 53 38 37 36 39 38 38 38 37 35 34 30 29 30 31 33 34 39 43 46 48 47 49 52 52 54 55 57 58 57 59 60
67 68 70 71 68 70 72 72 73 64 50 47 47 48 42 49 51 49 40 35 32 34 34 34 33 33 33 32 32 32 34 35 37 40 43 45 48 48 50 50 52 52 53 54 56 57 57 58 58
71 69 71 70 71 71 73 74 70 53 48 45 45 40 43 46 48 47 41 38 37 32 33 36 35 32 32 31 31 32 32 34 36 39 41 43 46 46 49 50 51 52 53 55 55 56 57 58 59
70 69 70 72 70 71 69 70 68 44 45 47 44 41 42 51 43 43 45 42 43 41 38 38 39 35 34 34 33 32 32 34 37 40 42 44 44 45 48 50 52 53 55 54 54 55 56 55 58
70 70 70 70 71 68 70 64 48 42 44 39 37 37 41 47 44 45 45 45 43 44 44 44 42 39 39 39 39 37 37 39 39 41 43 45 47 49 51 54 55 56 56 55 55 55 54 55 56
74 72 71 71 63 67 59 53 41 41 40 37 34 35 41 42 41 44 48 49 46 47 47 48 46 46 46 45 44 44 46 46 47 49 49 48 50 53 55 57 58 58 59 59 56 55 55 55 55
75 72 70 67 67 61 49 44 39 40 39 37 35 34 45 41 43 45 49 51 52 50 51 51 51 51 52 51 50 50 48 50 52 53 55 55 57 57 57 60 60 59 60 60 57 57 56 57 56
72 67 64 64 56 50 45 41 39 40 39 37 35 34 41 44 45 48 52 52 53 54 55 55 56 56 56 55 55 56 57 57 57 60 60 60 61 61 62 63 62 62 63 62 59 58 58 57 58
64 61 61 53 51 46 44 43 38 41 38 34 36 35 43 48 50 51 55 56 55 56 59 59 61 60 59 60 62 62 62 61 63 65 66 66 65 65 65 66 65 65 65 64 61 59 60 59 61
53 57 53 49 48 45 47 45 39 35 39 36 36 41 46 52 55 58 60 60 59 60 60 62 63 64 64 64 66 66 68 69 70 71 71 69 67 69 68 66 66 66 67 65 63 60 60 61 62
52 49 48 48 46 47 48 49 41 39 35 40 37 43 53 57 59 62 65 63 64 63 64 66 67 69 70 71 72 71 73 73 74 73 72 72 72 72 69 66 65 66 67 67 64 62 62 63 64
Wind_Direction
10 0 2 1 356 359 359 357 353 351 351 350 349 347 349 346 348 344 335 327 322 317 305 289 292 313 295 309 283 286 287 301 318 306 325 310 300 315 316 277 256 225 251 287 268 296 298 285 284
348 348 353 354 356 358 358 357 352 349 348 347 346 345 346 344 343 343 330 320 319 311 299 283 276 289 294 290 294 286 285 285 297 308 316 326 319 313 307 296 292 259 242 240 238 247 271 272 273
345 349 351 353 356 355 353 351 350 348 344 343 345 344 344 344 345 344 328 319 316 308 296 285 275 280 285 283 286 286 288 299 296 295 310 316 312 304 311 301 288 280 275 244 243 238 251 275 271
346 350 346 349 356 351 349 348 346 344 342 341 344 345 343 342 345 345 329 316 312 308 312 293 288 293 286 282 281 285 282 293 301 303 303 298 309 298 305 308 291 269 270 286 275 252 260 271 276
344 345 346 346 345 344 344 344 344 342 341 340 341 343 343 342 345 342 329 316 310 306 309 301 297 299 298 279 278 290 285 287 292 296 294 304 290 293 305 293 303 256 263 256 267 269 287 267 276
339 339 343 341 343 340 340 339 340 340 339 339 340 342 343 341 345 333 326 322 312 309 313 310 304 297 303 287 280 275 277 282 284 279 280 284 284 289 288 287 290 290 266 279 279 265 257 267 267
325 327 334 336 341 339 339 337 336 337 337 337 339 341 341 340 341 328 327 321 313 318 315 309 307 306 301 297 293 284 283 288 288 291 292 289 289 290 295 285 279 290 288 290 280 272 264 258 260
328 330 334 335 333 336 335 336 333 335 336 336 338 342 339 340 335 328 316 319 320 317 317 315 312 315 312 307 302 297 299 296 290 289 288 283 284 286 293 292 294 288 286 285 279 276 280 273 270
325 331 332 328 328 331 334 334 332 333 334 335 338 340 338 338 338 330 320 321 318 319 318 314 313 310 301 306 308 306 303 305 302 291 293 281 280 282 279 284 290 287 282 285 283 281 280 279 277
335 328 328 325 327 328 331 332 332 331 336 334 337 339 337 333 335 331 326 323 320 317 314 313 317 316 312 322 312 307 296 297 297 297 292 287 287 287 275 275 278 279 279 282 281 280 280 278 278
325 326 317 320 320 325 327 327 330 333 333 337 337 339 337 330 334 333 327 327 322 318 315 311 315 314 308 301 307 296 294 300 283 273 274 279 283 279 279 279 266 270 274 276 278 275 273 273 274
309 310 312 317 319 325 326 325 328 331 333 335 337 337 335 332 332 333 333 326 321 318 323 315 308 304 308 301 298 293 295 291 288 283 278 280 275 265 281 277 272 276 271 266 262 264 264 274 277
310 307 314 315 318 322 325 324 325 329 332 335 336 334 331 333 333 333 330 325 319 321 323 319 312 305 290 287 286 288 297 282 274 272 268 266 260 270 270 274 277 277 270 270 268 265 265 261 267
310 312 313 314 315 320 322 322 324 328 330 334 334 329 330 331 334 332 328 320 320 319 318 317 308 299 290 291 289 290 289 282 275 269 263 265 271 272 274 276 279 276 276 274 272 266 262 264 265
302 304 308 312 316 319 320 322 324 328 330 333 332 327 329 333 331 330 329 320 320 318 316 311 305 302 300 296 291 286 285 282 279 275 272 272 276 281 282 288 288 284 282 281 281 278 277 276 274
302 306 306 310 315 317 317 319 321 327 332 333 327 326 330 332 331 328 330 322 317 316 316 314 310 303 297 294 290 279 277 276 276 277 282 282 286 289 292 294 289 288 287 283 283 282 282 280 281
302 302 302 309 312 315 315 318 322 326 332 330 327 326 331 333 327 330 328 321 316 320 323 319 312 306 297 296 292 290 291 291 294 296 295 295 293 295 293 293 295 293 292 293 292 291 288 287 288
298 298 304 309 309 311 314 317 320 325 330 325 327 323 329 337 329 337 325 319 320 323 325 323 315 308 305 302 301 293 290 290 293 290 287 291 294 293 294 298 301 304 304 300 301 299 298 295 293
297 301 301 305 307 309 313 315 320 323 326 324 325 323 326 333 336 333 334 329 325 324 325 323 319 316 311 305 303 298 293 291 291 294 298 299 298 300 300 301 302 305 303 302 300 301 301 300 298
293 295 299 303 306 310 312 314 317 325 322 324 321 323 331 332 330 333 337 342 332 325 329 325 322 318 314 310 312 313 309 306 302 300 301 300 301 302 301 301 302 305 306 306 305 304 304 306 306
290 296 298 300 306 310 311 313 320 323 318 320 319 319 333 329 330 329 335 348 348 344 340 335 332 328 319 315 314 314 312 311 308 307 307 308 307 307 304 303 305 305 306 304 303 304 307 309 310
291 295 297 301 304 306 310 312 321 317 315 317 317 320 326 322 325 331 340 348 349 350 352 352 347 337 332 324 320 319 318 318 317 316 315 314 311 307 306 308 307 308 307 305 303 305 308 311 311
291 295 297 300 302 305 309 314 319 312 313 315 313 321 322 323 324 327 337 346 349 349 348 350 353 348 341 338 328 324 325 325 322 321 317 313 316 317 316 313 313 311 309 308 307 306 307 308 309
291 293 296 300 300 303 308 311 316 310 309 310 312 323 316 316 315 322 335 343 347 347 345 346 348 346 343 343 341 337 333 331 327 323 321 319 319 320 319 318 316 314 313 311 308 306 306 307 307
287 291 294 298 300 303 305 307 310 307 305 306 312 310 312 314 314 320 328 340 344 344 344 343 344 344 343 340 338 337 336 331 330 327 325 324 324 322 322 320 318 315 314 312 309 306 306 307 308
285 289 294 296 299 299 300 302 303 302 299 301 303 311 310 313 315 321 328 331 339 338 343 341 341 340 339 339 337 334 334 332 331 329 327 326 327 325 323 322 319 317 316 314 311 309 308 308 308
286 289 292 293 292 297 297 294 299 294 296 299 311 312 309 314 322 325 325 327 332 337 338 337 337 336 336 335 333 331 331 330 328 328 328 328 328 325 323 322 320 318 318 317 313 311 308 307 308
282 285 286 291 292 295 290 287 294 291 296 301 318 313 319 319 321 323 322 326 329 333 334 333 335 334 333 331 331 329 330 328 327 328 328 327 326 325 323 321 320 319 319 318 314 310 308 307 307
280 281 284 287 289 290 284 285 283 294 304 308 315 319 322 320 320 320 322 324 326 329 330 331 332 332 329 328 327 327 327 327 327 326 326 325 322 322 323 321 319 319 318 317 315 311 309 308 308
277 278 280 284 285 284 282 284 282 295 305 315 318 322 323 318 315 317 319 321 323 325 327 327 328 328 328 327 327 326 326 325 324 323 323 322 322 321 320 319 318 318 317 316 316 313 310 309 309
Height
10946 10943 10942 10939 10938 10933 10928 10923 10919 10917 10913 10906 10899 10893 10886 10880 10874 10868 10857 10850 10844 10841 10837 10836 10832 10831 10829 10828 10826 10824 10821 10818 10815 10813 10810 10806 10805 10803 10800 10798 10797 10795 10794 10794 10791 10791 10790 10789 10789
10947 10945 10943 10939 10934 10927 10924 10922 10917 10912 10907 10903 10898 10892 10886 10877 10869 10861 10853 10845 10839 10835 10832 10831 10829 10827 10824 10822 10821 10819 10817 10815 10812 10810 10807 10805 10803 10800 10797 10796 10794 10792 10788 10787 10785 10785 10786 10786 10786
10945 10942 10939 10936 10931 10928 10924 10921 10916 10911 10906 10902 10896 10888 10881 10872 10865 10857 10847 10839 10834 10830 10827 10825 10824 10823 10820 10817 10815 10814 10810 10808 10807 10806 10804 10801 10799 10797 10794 10792 10790 10789 10787 10783 10783 10781 10780 10781 10782
10943 10940 10937 10934 10932 10927 10923 10918 10914 10907 10900 10895 10890 10884 10877 10868 10858 10849 10840 10833 10830 10825 10824 10821 10820 10819 10817 10813 10810 10808 10806 10804 10801 10800 10799 10797 10795 10793 10790 10787 10784 10783 10782 10782 10781 10778 10778 10776 10776
10941 10939 10937 10933 10929 10927 10922 10914 10907 10901 10894 10888 10882 10877 10870 10861 10852 10843 10837 10831 10826 10822 10820 10820 10818 10815 10812 10808 10805 10803 10800 10798 10796 10794 10792 10790 10790 10788 10785 10784 10781 10779 10777 10777 10775 10776 10775 10774 10773
10940 10935 10933 10932 10929 10923 10918 10911 10904 10895 10887 10880 10875 10869 10862 10854 10846 10837 10832 10827 10822 10818 10816 10814 10812 10809 10806 10802 10800 10797 10794 10791 10790 10789 10786 10785 10783 10782 10780 10776 10775 10775 10775 10774 10772 10771 10770 10770 10770
10941 10935 10930 10929 10927 10919 10914 10906 10898 10891 10881 10874 10868 10862 10855 10847 10839 10831 10826 10822 10818 10812 10809 10805 10803 10801 10798 10795 10793 10790 10787 10784 10782 10780 10778 10777 10774 10772 10771 10769 10767 10767 10767 10766 10765 10765 10765 10764 10763
10936 10933 10929 10923 10922 10919 10910 10906 10893 10884 10876 10867 10859 10854 10847 10840 10833 10827 10820 10815 10810 10806 10801 10799 10796 10794 10790 10786 10784 10781 10778 10775 10775 10773 10771 10769 10764 10763 10762 10761 10759 10759 10758 10759 10759 10758 10757 10757 10756
10931 10928 10925 10922 10916 10913 10908 10898 10893 10883 10873 10863 10855 10848 10841 10832 10826 10819 10814 10808 10802 10798 10794 10791 10787 10786 10782 10778 10776 10773 10769 10766 10765 10762 10761 10759 10758 10756 10755 10753 10751 10750 10750 10749 10750 10750 10749 10748 10748
10928 10926 10922 10917 10913 10908 10901 10893 10880 10873 10876 10858 10849 10841 10833 10826 10820 10813 10807 10801 10796 10791 10788 10783 10780 10779 10775 10772 10769 10765 10763 10761 10757 10754 10750 10749 10748 10747 10745 10744 10743 10742 10741 10739 10739 10738 10738 10737 10736
10924 10920 10917 10913 10908 10903 10897 10889 10879 10868 10859 10857 10845 10836 10828 10820 10815 10808 10801 10795 10789 10785 10779 10773 10773 10773 10769 10766 10763 10761 10756 10754 10751 10748 10745 10743 10740 10737 10735 10734 10732 10730 10730 10728 10726 10724 10724 10724 10724
10921 10915 10912 10908 10903 10897 10890 10882 10875 10866 10855 10845 10838 10829 10821 10815 10808 10802 10797 10791 10784 10778 10775 10770 10767 10766 10761 10757 10754 10751 10748 10745 10743 10741 10739 10736 10733 10729 10728 10726 10723 10720 10718 10715 10714 10712 10711 10713 10712
10912 10913 10907 10902 10897 10892 10886 10876 10871 10863 10853 10841 10831 10823 10816 10809 10803 10797 10792 10785 10777 10771 10769 10765 10760 10757 10755 10749 10747 10741 10740 10738 10735 10733 10729 10726 10723 10719 10716 10714 10711 10709 10707 10704 10702 10700 10698 10698 10697
10907 10907 10904 10898 10891 10886 10880 10873 10865 10857 10847 10837 10826 10818 10811 10803 10797 10792 10786 10777 10769 10763 10759 10757 10752 10748 10743 10740 10736 10733 10729 10727 10725 10722 10719 10715 10712 10708 10706 10702 10698 10696 10693 10690 10687 10684 10683 10682 10679
10902 10902 10898 10892 10885 10880 10873 10865 10860 10851 10842 10829 10820 10812 10804 10797 10791 10786 10780 10771 10762 10756 10751 10746 10741 10736 10732 10729 10727 10724 10720 10717 10714 10712 10708 10705 10701 10697 10694 10690 10687 10684 10680 10676 10672 10670 10668 10665 10661
10897 10892 10888 10893 10878 10874 10867 10861 10853 10846 10838 10825 10814 10806 10799 10791 10785 10778 10772 10764 10755 10749 10745 10738 10734 10728 10723 10720 10718 10715 10712 10708 10704 10701 10698 10694 10691 10688 10684 10680 10676 10672 10667 10663 10659 10654 10651 10648 10644
10890 10883 10882 10879 10869 10865 10859 10855 10846 10840 10831 10820 10811 10802 10794 10786 10779 10772 10763 10756 10749 10743 10736 10730 10725 10720 10717 10712 10708 10704 10701 10697 10695 10692 10688 10684 10681 10677 10674 10669 10665 10659 10653 10648 10642 10638 10634 10629 10625
10880 10878 10872 10867 10865 10859 10850 10847 10841 10834 10825 10815 10805 10799 10790 10782 10774 10768 10760 10751 10743 10735 10728 10723 10718 10712 10707 10704 10701 10697 10695 10691 10687 10684 10680 10676 10671 10668 10663 10657 10651 10645 10641 10635 10629 10623 10617 10610 10605
10873 10868 10864 10863 10855 10850 10845 10841 10835 10830 10821 10811 10802 10795 10785 10776 10770 10763 10754 10746 10738 10730 10723 10716 10710 10705 10700 10695 10691 10688 10685 10682 10678 10674 10671 10667 10662 10657 10651 10646 10641 10634 10628 10622 10615 10609 10600 10593 10586
10865 10860 10856 10853 10848 10842 10836 10832 10826 10822 10814 10807 10799 10790 10781 10775 10768 10761 10752 10743 10735 10727 10720 10712 10705 10699 10694 10690 10685 10681 10678 10674 10671 10667 10662 10657 10652 10647 10641 10636 10629 10623 10616 10609 10602 10595 10588 10579 10568
10855 10851 10846 10844 10841 10833 10827 10824 10816 10814 10805 10801 10795 10786 10777 10772 10766 10757 10749 10740 10732 10725 10717 10709 10702 10695 10689 10684 10680 10676 10672 10669 10665 10659 10653 10648 10642 10636 10630 10623 10617 10610 10603 10596 10589 10582 10574 10565 10556
10843 10845 10837 10836 10831 10825 10817 10812 10816 10802 10798 10792 10788 10782 10773 10768 10761 10753 10746 10736 10729 10722 10715 10708 10700 10693 10687 10681 10676 10671 10666 10662 10657 10651 10645 10638 10633 10626 10620 10612 10605 10597 10590 10582 10575 10566 10558 10550 10541
10833 10831 10829 10826 10822 10816 10812 10803 10807 10796 10791 10785 10780 10773 10767 10762 10757 10748 10742 10731 10724 10717 10711 10704 10697 10690 10684 10678 10672 10667 10662 10655 10649 10642 10636 10630 10623 10616 10608 10600 10592 10584 10576 10568 10560 10552 10545 10538 10530
10823 10820 10818 10814 10812 10807 10801 10797 10796 10788 10785 10780 10773 10767 10760 10756 10751 10744 10736 10728 10718 10713 10706 10698 10693 10687 10680 10673 10667 10661 10655 10648 10641 10635 10628 10620 10612 10604 10595 10587 10578 10571 10563 10555 10547 10539 10531 10524 10516
10811 10809 10806 10803 10800 10795 10790 10787 10786 10781 10778 10772 10766 10761 10756 10750 10744 10737 10728 10720 10712 10707 10699 10693 10687 10680 10673 10666 10660 10654 10648 10641 10633 10627 10619 10612 10602 10593 10584 10575 10567 10558 10550 10542 10533 10525 10517 10509 10501
10799 10798 10795 10792 10786 10782 10780 10779 10776 10772 10770 10764 10758 10754 10748 10741 10735 10728 10720 10713 10705 10698 10691 10684 10678 10671 10664 10658 10652 10645 10639 10631 10624 10617 10609 10600 10590 10581 10572 10562 10554 10545 10535 10526 10518 10510 10502 10494 10486
10785 10784 10783 10780 10775 10772 10770 10768 10768 10763 10759 10756 10750 10744 10740 10732 10724 10719 10713 10705 10697 10689 10682 10676 10669 10662 10656 10648 10642 10635 10628 10621 10613 10605 10596 10587 10578 10568 10559 10549 10539 10530 10520 10511 10503 10495 10487 10479 10471
10773 10771 10770 10768 10765 10761 10760 10758 10759 10754 10750 10746 10739 10735 10729 10722 10715 10709 10703 10696 10688 10682 10674 10667 10660 10653 10646 10639 10632 10624 10617 10609 10600 10591 10582 10573 10564 10555 10545 10535 10525 10516 10506 10497 10488 10480 10472 10464 10456
10760 10759 10757 10756 10754 10751 10749 10747 10746 10745 10739 10735 10729 10725 10718 10711 10705 10700 10693 10687 10679 10672 10665 10658 10651 10643 10636 10629 10621 10612 10604 10596 10587 10578 10569 10559 10550 10541 10531 10521 10511 10502 10493 10483 10474 10465 10457 10449 10441
10748 10748 10746 10745 10743 10741 10738 10733 10735 10733 10728 10724 10719 10715 10706 10699 10694 10689 10683 10676 10669 10662 10655 10647 10640 10633 10625 10616 10608 10600 10591 10583 10574 10565 10556 10547 10537 10526 10517 10507 10498 10488 10479 10469 10459 10450 10443 10434 10425